,,PA_Meas_PMT16A,,PR_Meas_QMR101_102,,RH_Meas_QMH101,,SR_Meas_QMS101,,TA_Meas_QMH101,,GenWind,,GenWind,
time,status,PA,status,PR,status,RH,status,SR,status,TA,status,DirAvg,status,SpdAvg,
2016-04-15, 08:05:04,VALID,919.04,VALID,0,INVALID,110.12,VALID,115.069,VALID,20.8145,VALID,1,VALID,0,
2016-04-15, 08:06:04,VALID,919.092,VALID,0,INVALID,110.113,VALID,118.293,VALID,20.912,VALID,332,VALID,0,
2016-04-15, 08:07:04,VALID,919.12,VALID,0,INVALID,110.212,VALID,121.838,VALID,20.9511,VALID,332,VALID,0,
2016-04-15, 08:08:04,VALID,919.132,VALID,0,INVALID,110.334,VALID,125.491,VALID,21.0291,VALID,331,VALID,0,
2016-04-15, 08:09:04,VALID,919.168,VALID,0,INVALID,110.387,VALID,129.574,VALID,21.0876,VALID,331,VALID,0,
2016-04-15, 08:10:04,VALID,919.227,VALID,0,INVALID,110.501,VALID,133.764,VALID,21.1461,VALID,316,VALID,0,
2016-04-15, 08:11:04,VALID,919.249,VALID,0,INVALID,110.654,VALID,137.954,VALID,21.1657,VALID,314,VALID,0,
2016-04-15, 08:12:04,VALID,919.27,VALID,0,INVALID,110.722,VALID,142.682,VALID,21.1461,VALID,313,VALID,0,
2016-04-15, 08:13:04,VALID,919.297,VALID,0,INVALID,110.753,VALID,147.839,VALID,21.0876,VALID,314,VALID,0,
2016-04-15, 08:14:04,VALID,919.305,VALID,0,INVALID,110.738,VALID,153.641,VALID,21.0876,VALID,314,VALID,0,
2016-04-15, 08:15:04,VALID,919.307,VALID,0,INVALID,110.715,VALID,160.195,VALID,21.1266,VALID,329,VALID,0,
2016-04-15, 08:16:04,VALID,919.326,VALID,0,INVALID,110.799,VALID,167.501,VALID,21.1461,VALID,348,VALID,0,
2016-04-15, 08:17:04,VALID,919.338,VALID,0,INVALID,110.745,VALID,175.022,VALID,21.2031,VALID,350,VALID,0,
2016-04-15, 08:18:04,VALID,919.335,VALID,0,INVALID,110.707,VALID,183.08,VALID,21.3412,VALID,350,VALID,0,
2016-04-15, 08:19:04,VALID,919.342,VALID,0,INVALID,110.654,VALID,191.568,VALID,21.4762,VALID,349,VALID,0,
2016-04-15, 08:20:04,VALID,919.365,VALID,0,INVALID,110.745,VALID,200.915,VALID,21.4973,VALID,320,VALID,0,
2016-04-15, 08:21:04,VALID,919.349,VALID,0,INVALID,110.722,VALID,210.155,VALID,21.5363,VALID,313,VALID,0,
2016-04-15, 08:22:04,VALID,919.364,VALID,0,INVALID,110.684,VALID,218.965,VALID,21.5363,VALID,313,VALID,0,
2016-04-15, 08:23:04,VALID,919.384,VALID,0,INVALID,110.662,VALID,227.775,VALID,21.5754,VALID,313,VALID,0,
2016-04-15, 08:24:04,VALID,919.411,VALID,0,INVALID,110.57,VALID,238.842,VALID,21.5559,VALID,313,VALID,0,
2016-04-15, 08:25:04,VALID,919.411,VALID,0,INVALID,110.219,VALID,247.222,VALID,21.6144,VALID,313,VALID,0,
2016-04-15, 08:26:04,VALID,919.417,VALID,0,INVALID,110.044,VALID,232.61,VALID,21.6713,VALID,312,VALID,0,
2016-04-15, 08:27:04,VALID,919.416,VALID,0,INVALID,109.564,VALID,219.717,VALID,21.6924,VALID,328,VALID,0,
2016-04-15, 08:28:04,VALID,919.435,VALID,0,INVALID,109.64,VALID,209.295,VALID,21.79,VALID,11,VALID,0,
2016-04-15, 08:29:04,VALID,919.427,VALID,0,INVALID,109.594,VALID,201.989,VALID,21.8664,VALID,314,VALID,0,
2016-04-15, 08:30:04,VALID,919.456,VALID,0,INVALID,109.396,VALID,196.617,VALID,21.9266,VALID,296,VALID,0,
2016-04-15, 08:31:04,VALID,919.461,VALID,0,INVALID,109.762,VALID,194.146,VALID,22.042,VALID,296,VALID,0,
2016-04-15, 08:32:04,VALID,919.476,VALID,0,INVALID,109.533,VALID,196.832,VALID,22.1005,VALID,297,VALID,0,
2016-04-15, 08:33:04,VALID,919.491,VALID,0,VALID,104,VALID,200.485,VALID,22.0615,VALID,291,VALID,0,
2016-04-15, 08:34:04,VALID,919.501,VALID,0,VALID,104,VALID,195.435,VALID,22.1005,VALID,289,VALID,0,
2016-04-15, 08:35:04,VALID,919.547,VALID,0,VALID,104,VALID,197.907,VALID,22.042,VALID,289,VALID,0,
2016-04-15, 08:36:04,VALID,919.559,VALID,0,VALID,104,VALID,204.031,VALID,21.9444,VALID,295,VALID,0,
2016-04-15, 08:37:04,VALID,919.542,VALID,0,VALID,104,VALID,210.047,VALID,21.8469,VALID,289,VALID,0,
2016-04-15, 08:38:04,VALID,919.552,VALID,0,VALID,104,VALID,215.205,VALID,21.8062,VALID,353,VALID,0,
2016-04-15, 08:39:04,VALID,919.534,VALID,0,INVALID,109.053,VALID,219.287,VALID,21.8257,VALID,322,VALID,0,
2016-04-15, 08:40:04,VALID,919.548,VALID,0,INVALID,109.068,VALID,221.759,VALID,21.9054,VALID,300,VALID,0,
2016-04-15, 08:41:04,VALID,919.55,VALID,0,INVALID,109.129,VALID,226.808,VALID,21.964,VALID,300,VALID,0,
2016-04-15, 08:42:04,VALID,919.566,VALID,0,INVALID,109.099,VALID,232.825,VALID,22.0013,VALID,300,VALID,0,
2016-04-15, 08:43:04,VALID,919.576,VALID,0,VALID,104,VALID,237.875,VALID,22.0403,VALID,300,VALID,0,
2016-04-15, 08:44:04,VALID,919.565,VALID,0,VALID,104,VALID,240.668,VALID,21.9623,VALID,302,VALID,0,
2016-04-15, 08:45:04,VALID,919.604,VALID,0,VALID,104,VALID,239.057,VALID,21.9038,VALID,298,VALID,0,
2016-04-15, 08:46:04,VALID,919.628,VALID,0,VALID,104,VALID,234.759,VALID,21.8664,VALID,299,VALID,0,
2016-04-15, 08:47:04,VALID,919.671,VALID,0,VALID,104,VALID,230.139,VALID,21.8062,VALID,289,VALID,0,
2016-04-15, 08:48:04,VALID,919.675,VALID,0,VALID,104,VALID,226.056,VALID,21.8452,VALID,289,VALID,0,
2016-04-15, 08:49:04,VALID,919.683,VALID,0,INVALID,109.122,VALID,223.263,VALID,21.9428,VALID,289,VALID,0,
2016-04-15, 08:50:04,VALID,919.684,VALID,0,INVALID,109.541,VALID,221.436,VALID,22.0615,VALID,2,VALID,0,
2016-04-15, 08:51:04,VALID,919.673,VALID,0,INVALID,109.937,VALID,220.899,VALID,22.1786,VALID,18,VALID,0,
2016-04-15, 08:52:04,VALID,919.666,VALID,0,INVALID,110.075,VALID,220.899,VALID,22.3152,VALID,17,VALID,0,
2016-04-15, 08:53:04,VALID,919.716,VALID,0,INVALID,110.052,VALID,221.006,VALID,22.4323,VALID,318,VALID,0,
2016-04-15, 08:54:04,VALID,919.666,VALID,0,INVALID,109.465,VALID,220.899,VALID,22.4518,VALID,320,VALID,0,
2016-04-15, 08:55:04,VALID,919.682,VALID,0,INVALID,109.335,VALID,220.577,VALID,22.5494,VALID,26,VALID,0,
2016-04-15, 08:56:04,VALID,919.668,VALID,0,INVALID,109.19,VALID,220.792,VALID,22.647,VALID,351,VALID,0.976953,
2016-04-15, 08:57:04,VALID,919.66,VALID,0,VALID,104,VALID,221.436,VALID,22.6665,VALID,4,VALID,0,
2016-04-15, 08:58:04,VALID,919.664,VALID,0,VALID,104,VALID,223.8,VALID,22.6843,VALID,294,VALID,0,
2016-04-15, 08:59:04,VALID,919.639,VALID,0,VALID,104,VALID,228.205,VALID,22.5689,VALID,292,VALID,0,
2016-04-15, 09:00:04,VALID,919.593,VALID,0,VALID,104,VALID,235.189,VALID,22.4908,VALID,301,VALID,0,
2016-04-15, 09:01:04,VALID,919.606,VALID,0,VALID,104,VALID,240.561,VALID,22.4128,VALID,298,VALID,0,
2016-04-15, 09:02:04,VALID,919.58,VALID,0,VALID,104,VALID,249.263,VALID,22.4128,VALID,343,VALID,0,
2016-04-15, 09:03:04,VALID,919.6,VALID,0,VALID,104,VALID,261.082,VALID,22.4306,VALID,357,VALID,0,
2016-04-15, 09:04:04,VALID,919.571,VALID,0,VALID,104,VALID,278.595,VALID,22.4696,VALID,309,VALID,0,
2016-04-15, 09:05:04,VALID,919.569,VALID,0,VALID,104,VALID,324.257,VALID,22.4501,VALID,289,VALID,0,
2016-04-15, 09:06:04,VALID,919.578,VALID,0,VALID,104,VALID,356.167,VALID,22.4696,VALID,285,VALID,0,
2016-04-15, 09:07:04,VALID,919.595,VALID,0,VALID,104,VALID,330.489,VALID,22.5494,VALID,276,VALID,0,
2016-04-15, 09:08:04,VALID,919.638,VALID,0,VALID,104,VALID,333.39,VALID,22.6062,VALID,275,VALID,0,
2016-04-15, 09:09:04,VALID,919.678,VALID,0,VALID,104,VALID,338.869,VALID,22.6665,VALID,272,VALID,0,
2016-04-15, 09:10:04,VALID,919.669,VALID,0,VALID,104,VALID,365.3,VALID,22.7038,VALID,272,VALID,0,
2016-04-15, 09:11:04,VALID,919.717,VALID,0,VALID,104,VALID,387.11,VALID,22.8014,VALID,272,VALID,0,
2016-04-15, 09:12:04,VALID,919.742,VALID,0,VALID,104,VALID,356.49,VALID,22.9575,VALID,272,VALID,0,
2016-04-15, 09:13:04,VALID,919.743,VALID,0,VALID,104,VALID,351.655,VALID,22.9185,VALID,271,VALID,0,
2016-04-15, 09:14:04,VALID,919.763,VALID,0,VALID,104,VALID,366.052,VALID,22.8989,VALID,271,VALID,0,
2016-04-15, 09:15:04,VALID,919.778,VALID,0,VALID,104,VALID,381.416,VALID,22.9575,VALID,272,VALID,0,
2016-04-15, 09:16:04,VALID,919.796,VALID,0,VALID,104,VALID,458.022,VALID,23.0551,VALID,292,VALID,0,
2016-04-15, 09:17:04,VALID,919.791,VALID,0,VALID,104,VALID,793.99,VALID,23.2502,VALID,294,VALID,0,
2016-04-15, 09:18:04,VALID,919.836,VALID,0,VALID,104,VALID,485.527,VALID,23.4437,VALID,261,VALID,0,
2016-04-15, 09:19:04,VALID,919.816,VALID,0,VALID,104,VALID,464.038,VALID,23.5998,VALID,266,VALID,0,
2016-04-15, 09:20:04,VALID,919.79,VALID,0,VALID,100.896,VALID,586.951,VALID,23.7755,VALID,309,VALID,0,
2016-04-15, 09:21:04,VALID,919.796,VALID,0,VALID,99.9277,VALID,912.068,VALID,23.9725,VALID,275,VALID,0,
2016-04-15, 09:22:04,VALID,919.801,VALID,0,VALID,100.705,VALID,475.642,VALID,24.1677,INVALID,360,VALID,0,
2016-04-15, 09:23:04,VALID,919.81,VALID,0,VALID,82.6912,VALID,477.361,VALID,24.1873,VALID,33,VALID,0.0953125,
2016-04-15, 09:24:04,VALID,919.844,VALID,0,VALID,93.4859,VALID,500.461,VALID,24.3044,VALID,265,VALID,0,
2016-04-15, 09:25:04,VALID,919.836,VALID,0,VALID,87.4177,VALID,635.085,VALID,24.2654,VALID,263,VALID,0,
2016-04-15, 09:26:04,VALID,919.865,VALID,0,VALID,84.2387,VALID,468.336,VALID,24.2068,VALID,251,VALID,0,
2016-04-15, 09:27:04,VALID,919.884,VALID,0,VALID,91.4048,VALID,482.626,VALID,24.2654,VALID,309,VALID,0,
2016-04-15, 09:28:04,VALID,919.868,VALID,0,VALID,83.8881,VALID,502.717,VALID,24.4411,VALID,304,VALID,0,
2016-04-15, 09:29:04,VALID,919.861,VALID,0,VALID,85.2984,VALID,568.041,VALID,24.5192,VALID,312,VALID,0,
2016-04-15, 09:30:04,VALID,919.826,VALID,0,VALID,86.3809,VALID,514.858,VALID,24.5973,VALID,251,VALID,0,
2016-04-15, 09:31:04,VALID,919.828,VALID,0,VALID,77.7665,VALID,536.669,VALID,24.6345,VALID,260,VALID,0,
2016-04-15, 09:32:04,VALID,919.811,VALID,0,VALID,81.319,VALID,489.609,VALID,24.7926,VALID,321,VALID,0,
2016-04-15, 09:33:04,VALID,919.772,VALID,0,VALID,79.779,VALID,413.971,VALID,24.9274,VALID,308,VALID,0,
2016-04-15, 09:34:04,VALID,919.777,VALID,0,VALID,77.3624,VALID,363.688,VALID,25.0836,VALID,346,VALID,0,
2016-04-15, 09:35:04,VALID,919.779,VALID,0,VALID,77.8656,VALID,349.506,VALID,25.1422,INVALID,360,VALID,0,
2016-04-15, 09:36:04,VALID,919.785,VALID,0,VALID,77.4844,VALID,356.919,VALID,25.2007,INVALID,360,VALID,0,
2016-04-15, 09:37:04,VALID,919.751,VALID,0,VALID,75.3041,VALID,355.953,VALID,25.3179,VALID,312,VALID,0,
2016-04-15, 09:38:04,VALID,919.766,VALID,0,VALID,73.0781,VALID,362.936,VALID,25.4331,VALID,6,VALID,0,
2016-04-15, 09:39:04,VALID,919.767,VALID,0,VALID,72.7579,VALID,359.928,VALID,25.5718,VALID,3,VALID,0,
2016-04-15, 09:40:04,VALID,919.766,VALID,0,VALID,74.5723,VALID,356.06,VALID,25.5913,VALID,271,VALID,0,
2016-04-15, 09:41:04,VALID,919.734,VALID,0,VALID,74.9382,VALID,351.547,VALID,25.5698,VALID,272,VALID,0,
2016-04-15, 09:42:04,VALID,919.74,VALID,0,VALID,71.5839,VALID,351.118,VALID,25.6675,VALID,272,VALID,0,
2016-04-15, 09:43:04,VALID,919.716,VALID,0,VALID,71.157,VALID,353.589,VALID,25.7866,VALID,274,VALID,0,
2016-04-15, 09:44:04,VALID,919.67,VALID,0,VALID,71.3171,VALID,356.812,VALID,25.8237,VALID,276,VALID,0,
2016-04-15, 09:45:04,VALID,919.694,VALID,0,VALID,70.3717,VALID,354.771,VALID,25.8042,VALID,307,VALID,0,
2016-04-15, 09:46:04,VALID,919.684,VALID,0,VALID,71.0655,VALID,361.754,VALID,25.7456,VALID,345,VALID,0,
2016-04-15, 09:47:04,VALID,919.669,VALID,0,VALID,68.9004,VALID,364.87,VALID,25.8433,VALID,345,VALID,0,
2016-04-15, 09:48:04,VALID,919.686,VALID,0,VALID,70.7453,VALID,375.507,VALID,25.9038,VALID,336,VALID,0,
2016-04-15, 09:49:04,VALID,919.648,VALID,0,VALID,72.7121,VALID,393.127,VALID,25.8628,VALID,304,VALID,0,
2016-04-15, 09:50:04,VALID,919.615,VALID,0,VALID,73.3449,VALID,433.418,VALID,25.9019,VALID,328,VALID,0,
2016-04-15, 09:51:04,VALID,919.615,VALID,0,VALID,71.7058,VALID,434.17,VALID,25.9995,VALID,356,VALID,0,
2016-04-15, 09:52:04,VALID,919.637,VALID,0,VALID,71.9117,VALID,434.17,VALID,26.019,VALID,1,VALID,0,
2016-04-15, 09:53:04,VALID,919.642,VALID,0,VALID,71.6449,VALID,438.897,VALID,26.0776,VALID,42,VALID,0,
2016-04-15, 09:54:04,VALID,919.649,VALID,0,VALID,71.3094,VALID,430.946,VALID,26.1948,VALID,265,VALID,0,
2016-04-15, 09:55:04,VALID,919.655,VALID,0,VALID,70.6462,VALID,432.666,VALID,26.2534,VALID,317,VALID,0,
2016-04-15, 09:56:04,VALID,919.695,VALID,0,VALID,68.6717,VALID,431.376,VALID,26.2925,VALID,309,VALID,0,
2016-04-15, 09:57:04,VALID,919.735,VALID,0,VALID,69.7848,VALID,442.228,VALID,26.3706,INVALID,360,VALID,0,
2016-04-15, 09:58:04,VALID,919.704,VALID,0,VALID,69.0224,VALID,443.087,VALID,26.4878,VALID,359,VALID,0,
2016-04-15, 09:59:04,VALID,919.735,VALID,0,VALID,69.4265,VALID,416.657,VALID,26.564,INVALID,360,VALID,0,
2016-04-15, 10:00:04,VALID,919.753,VALID,0,VALID,70.5776,VALID,411.822,VALID,26.566,VALID,308,VALID,0,
2016-04-15, 10:01:04,VALID,919.747,VALID,0,VALID,70.509,VALID,420.202,VALID,26.3706,VALID,264,VALID,0,
2016-04-15, 10:02:04,VALID,919.759,VALID,0,VALID,70.9893,VALID,418.376,VALID,26.1948,VALID,264,VALID,0,
2016-04-15, 10:03:04,VALID,919.744,VALID,0,VALID,71.4695,VALID,421.599,VALID,25.9624,VALID,261,VALID,0,
2016-04-15, 10:04:04,VALID,919.741,VALID,0,VALID,72.918,VALID,397.747,VALID,25.6304,VALID,254,VALID,0,
2016-04-15, 10:05:04,VALID,919.756,VALID,0,VALID,72.7426,VALID,382.491,VALID,25.2984,VALID,254,VALID,0,
2016-04-15, 10:06:04,VALID,919.784,VALID,0,VALID,74.6027,VALID,363.151,VALID,25.1598,VALID,255,VALID,0,
2016-04-15, 10:07:04,VALID,919.809,VALID,0,VALID,73.4745,VALID,354.019,VALID,25.0036,VALID,254,VALID,0,
2016-04-15, 10:08:04,VALID,919.802,VALID,0,VALID,74.6866,VALID,349.828,VALID,24.9255,VALID,254,VALID,0,
2016-04-15, 10:09:04,VALID,919.818,VALID,0,VALID,75.7615,VALID,345.316,VALID,24.945,VALID,249,VALID,0,
2016-04-15, 10:10:04,VALID,919.823,VALID,0,VALID,76.0131,VALID,343.919,VALID,25.0445,VALID,255,VALID,0,
2016-04-15, 10:11:04,VALID,919.857,VALID,0,VALID,73.8938,VALID,341.663,VALID,25.0231,VALID,265,VALID,0,
2016-04-15, 10:12:04,VALID,919.827,VALID,0,VALID,75.731,VALID,338.117,VALID,25.0055,VALID,265,VALID,0,
2016-04-15, 10:13:04,VALID,919.82,VALID,0,VALID,76.7602,VALID,334.035,VALID,25.0817,VALID,265,VALID,0,
2016-04-15, 10:14:04,VALID,919.842,VALID,0,VALID,73.7565,VALID,329.092,VALID,25.1617,VALID,264,VALID,0,
2016-04-15, 10:15:04,VALID,919.823,VALID,0,VALID,72.9942,VALID,324.365,VALID,25.1402,VALID,264,VALID,0,
2016-04-15, 10:16:04,VALID,919.831,VALID,0,VALID,73.3296,VALID,321.142,VALID,25.2379,VALID,272,VALID,0,
2016-04-15, 10:17:04,VALID,919.796,VALID,0,VALID,71.3628,VALID,320.175,VALID,25.316,VALID,272,VALID,0,
2016-04-15, 10:18:04,VALID,919.819,VALID,0,VALID,72.1099,VALID,321.464,VALID,25.4331,VALID,280,VALID,0,
2016-04-15, 10:19:04,VALID,919.81,VALID,0,VALID,71.8507,VALID,324.687,VALID,25.5503,VALID,276,VALID,0,
2016-04-15, 10:20:04,VALID,919.828,VALID,0,VALID,72.2776,VALID,327.91,VALID,25.648,VALID,206,VALID,0,
2016-04-15, 10:21:04,VALID,919.825,VALID,0,VALID,72.6664,VALID,329.307,VALID,25.7866,VALID,209,VALID,0,
2016-04-15, 10:22:04,VALID,919.82,VALID,0,VALID,73.4135,VALID,328.34,VALID,25.9038,VALID,356,VALID,0,
2016-04-15, 10:23:04,VALID,919.783,VALID,0,VALID,70.631,VALID,325.976,VALID,25.8257,VALID,47,VALID,0,
2016-04-15, 10:24:04,VALID,919.79,VALID,0,VALID,73.1391,VALID,323.828,VALID,25.648,VALID,18,VALID,0,
2016-04-15, 10:25:04,VALID,919.759,VALID,0,VALID,72.9866,VALID,322.538,VALID,25.5698,VALID,5,VALID,0,
2016-04-15, 10:26:04,VALID,919.782,VALID,0,VALID,73.322,VALID,322.968,VALID,25.4722,VALID,7,VALID,0,
2016-04-15, 10:27:04,VALID,919.771,VALID,0,VALID,72.5368,VALID,324.365,VALID,25.4331,VALID,47,VALID,0,
2016-04-15, 10:28:04,VALID,919.787,VALID,0,VALID,74.6256,VALID,325.976,VALID,25.3746,VALID,46,VALID,0,
2016-04-15, 10:29:04,VALID,919.745,VALID,0,VALID,74.9077,VALID,326.621,VALID,25.316,VALID,32,VALID,0,
2016-04-15, 10:30:04,VALID,919.756,VALID,0,VALID,73.7489,VALID,326.621,VALID,25.2769,VALID,13,VALID,0,
2016-04-15, 10:31:04,VALID,919.753,VALID,0,VALID,74.0691,VALID,326.299,VALID,25.2965,VALID,39,VALID,0,
2016-04-15, 10:32:04,VALID,919.726,VALID,0,VALID,72.4606,VALID,326.084,VALID,25.355,VALID,36,VALID,0,
2016-04-15, 10:33:04,VALID,919.726,VALID,0,VALID,72.6054,VALID,326.084,VALID,25.4527,VALID,357,VALID,0,
2016-04-15, 10:34:04,VALID,919.703,VALID,0,VALID,70.3641,VALID,326.729,VALID,25.5327,VALID,65,VALID,0,
2016-04-15, 10:35:04,VALID,919.693,VALID,0,VALID,73.1924,VALID,328.125,VALID,25.4527,VALID,66,VALID,0,
2016-04-15, 10:36:04,VALID,919.685,VALID,0,VALID,72.8951,VALID,330.596,VALID,25.5113,VALID,59,VALID,0,
2016-04-15, 10:37:04,VALID,919.654,VALID,0,VALID,69.7924,VALID,333.927,VALID,25.5308,VALID,31,VALID,0,
2016-04-15, 10:38:04,VALID,919.643,VALID,0,VALID,70.7377,VALID,337.365,VALID,25.4917,VALID,26,VALID,0,
2016-04-15, 10:39:04,VALID,919.674,VALID,0,VALID,73.7794,VALID,340.803,VALID,25.5913,VALID,12,VALID,0,
2016-04-15, 10:40:04,VALID,919.627,VALID,0,VALID,69.9372,VALID,343.489,VALID,25.687,VALID,20,VALID,0,
2016-04-15, 10:41:04,VALID,919.63,VALID,0,VALID,71.6449,VALID,345.531,VALID,25.7651,VALID,30,VALID,0,
2016-04-15, 10:42:04,VALID,919.596,VALID,0,VALID,72.3081,VALID,347.25,VALID,25.8433,VALID,5,VALID,0,
2016-04-15, 10:43:04,VALID,919.61,VALID,0,VALID,72.9637,VALID,349.076,VALID,25.8237,INVALID,360,VALID,0,
2016-04-15, 10:44:04,VALID,919.602,VALID,0,VALID,69.7009,VALID,350.795,VALID,25.9019,VALID,39,VALID,0,
2016-04-15, 10:45:04,VALID,919.57,VALID,0,VALID,71.0502,VALID,352.407,VALID,25.9019,VALID,47,VALID,0,
2016-04-15, 10:46:04,VALID,919.528,VALID,0,VALID,71.8126,VALID,353.589,VALID,25.8237,VALID,52,VALID,0,
2016-04-15, 10:47:04,VALID,919.586,VALID,0,VALID,73.0018,VALID,354.019,VALID,25.6675,VALID,52,VALID,0,
2016-04-15, 10:48:04,VALID,919.584,VALID,0,VALID,72.6359,VALID,353.696,VALID,25.6675,VALID,26,VALID,0,
2016-04-15, 10:49:04,VALID,919.599,VALID,0,VALID,71.5305,VALID,353.696,VALID,25.7261,VALID,356,VALID,0,
2016-04-15, 10:50:04,VALID,919.57,VALID,0,VALID,70.4099,VALID,354.341,VALID,25.7066,VALID,356,VALID,0,
2016-04-15, 10:51:04,VALID,919.581,VALID,0,VALID,71.3247,VALID,356.49,VALID,25.7261,VALID,356,VALID,0,
2016-04-15, 10:52:04,VALID,919.557,VALID,0,VALID,70.7682,VALID,359.928,VALID,25.7066,VALID,356,VALID,0,
2016-04-15, 10:53:04,VALID,919.536,VALID,0,VALID,71.2866,VALID,361.647,VALID,25.7261,VALID,356,VALID,0,
2016-04-15, 10:54:04,VALID,919.538,VALID,0,VALID,70.7224,VALID,361.539,VALID,25.7066,VALID,356,VALID,0,
2016-04-15, 10:55:04,VALID,919.527,VALID,0,VALID,72.0337,VALID,361.432,VALID,25.7651,VALID,356,VALID,0,
2016-04-15, 10:56:04,VALID,919.567,VALID,0,VALID,71.805,VALID,360.895,VALID,25.8823,VALID,5,VALID,0,
2016-04-15, 10:57:04,VALID,919.527,VALID,0,VALID,70.5852,VALID,359.713,VALID,26.0581,VALID,356,VALID,0,
2016-04-15, 10:58:04,VALID,919.55,VALID,0,VALID,71.6449,VALID,358.209,VALID,25.9995,VALID,354,VALID,0,
2016-04-15, 10:59:04,VALID,919.512,VALID,0,VALID,71.7897,VALID,356.382,VALID,25.98,VALID,354,VALID,0,
2016-04-15, 11:00:04,VALID,919.548,VALID,0,VALID,70.7682,VALID,355.093,VALID,26.019,VALID,354,VALID,0,
2016-04-15, 11:01:04,VALID,919.522,VALID,0,VALID,71.3171,VALID,354.771,VALID,26.1167,VALID,354,VALID,0,
2016-04-15, 11:02:04,VALID,919.51,VALID,0,VALID,70.2498,VALID,355.093,VALID,26.0581,VALID,354,VALID,0,
2016-04-15, 11:03:04,VALID,919.53,VALID,0,VALID,70.913,VALID,357.027,VALID,25.9975,VALID,354,VALID,0,
2016-04-15, 11:04:04,VALID,919.508,VALID,0,VALID,70.9206,VALID,361.002,VALID,26.019,VALID,354,VALID,0,
2016-04-15, 11:05:04,VALID,919.541,VALID,0,VALID,70.7682,VALID,366.697,VALID,26.0581,VALID,354,VALID,0,
2016-04-15, 11:06:04,VALID,919.509,VALID,0,VALID,71.9193,VALID,373.573,VALID,26.0386,VALID,357,VALID,0,
2016-04-15, 11:07:04,VALID,919.493,VALID,0,VALID,71.7058,VALID,380.986,VALID,26.1948,VALID,7,VALID,0,
2016-04-15, 11:08:04,VALID,919.498,VALID,0,VALID,69.0148,VALID,388.507,VALID,26.3902,VALID,322,VALID,0,
2016-04-15, 11:09:04,VALID,919.486,VALID,0,VALID,69.8534,VALID,395.813,VALID,26.3686,VALID,318,VALID,0,
2016-04-15, 11:10:04,VALID,919.458,VALID,0,VALID,69.7466,VALID,403.119,VALID,26.3882,VALID,318,VALID,0,
2016-04-15, 11:11:04,VALID,919.467,VALID,0,VALID,68.4354,VALID,410.103,VALID,26.3706,VALID,321,VALID,0,
2016-04-15, 11:12:04,VALID,919.442,VALID,0,VALID,71.7135,VALID,418.483,VALID,26.4292,VALID,318,VALID,0,
2016-04-15, 11:13:04,VALID,919.455,VALID,0,VALID,67.8408,VALID,427.723,VALID,26.5074,VALID,329,VALID,0,
2016-04-15, 11:14:04,VALID,919.43,VALID,0,VALID,67.0403,VALID,436.426,VALID,26.4683,VALID,329,VALID,0,
2016-04-15, 11:15:04,VALID,919.377,VALID,0,VALID,69.4646,VALID,447.278,VALID,26.3511,VALID,323,VALID,0,
2016-04-15, 11:16:04,VALID,919.378,VALID,0,VALID,68.0695,VALID,457.914,VALID,26.31,VALID,320,VALID,0,
2016-04-15, 11:17:04,VALID,919.36,VALID,0,VALID,68.0466,VALID,465.435,VALID,26.2534,VALID,320,VALID,0,
2016-04-15, 11:18:04,VALID,919.377,VALID,0,VALID,67.1699,VALID,497.775,VALID,26.1928,VALID,321,VALID,0,
2016-04-15, 11:19:04,VALID,919.333,VALID,0,VALID,68.2677,VALID,716.633,VALID,26.2339,VALID,360,VALID,0,
2016-04-15, 11:20:04,VALID,919.33,VALID,0,VALID,68.5574,VALID,542.041,VALID,26.3902,VALID,357,VALID,0,
2016-04-15, 11:21:04,VALID,919.308,VALID,0,VALID,67.5206,VALID,603.175,VALID,26.4683,VALID,15,VALID,0,
2016-04-15, 11:22:04,VALID,919.272,VALID,0,VALID,67.5206,VALID,529.685,VALID,26.4292,VALID,46,VALID,0,
2016-04-15, 11:23:04,VALID,919.297,VALID,0,VALID,67.4367,VALID,528.288,VALID,26.3491,VALID,46,VALID,0,
2016-04-15, 11:24:04,VALID,919.316,VALID,0,VALID,67.4596,VALID,525.924,VALID,26.2319,VALID,46,VALID,0,
2016-04-15, 11:25:04,VALID,919.27,VALID,0,VALID,68.626,VALID,464.79,VALID,26.3316,VALID,33,VALID,0,
2016-04-15, 11:26:04,VALID,919.256,VALID,0,VALID,69.0377,VALID,449.641,VALID,26.5444,VALID,28,VALID,0,
2016-04-15, 11:27:04,VALID,919.238,VALID,0,VALID,65.4394,VALID,442.12,VALID,26.7418,VALID,334,VALID,0,
2016-04-15, 11:28:04,VALID,919.251,VALID,0,VALID,68.0466,VALID,437.285,VALID,26.564,VALID,321,VALID,0,
2016-04-15, 11:29:04,VALID,919.246,VALID,0,VALID,67.0784,VALID,436.104,VALID,26.3882,VALID,321,VALID,0,
2016-04-15, 11:30:04,VALID,919.198,VALID,0,VALID,65.8358,VALID,443.195,VALID,26.271,VALID,321,VALID,0,
2016-04-15, 11:31:04,VALID,919.237,VALID,0,VALID,66.3618,VALID,465.22,VALID,26.2319,VALID,321,VALID,0,
2016-04-15, 11:32:04,VALID,919.172,VALID,0,VALID,67.0327,VALID,592.968,VALID,26.2905,VALID,321,VALID,0,
2016-04-15, 11:33:04,VALID,919.17,VALID,0,VALID,66.2704,VALID,504.651,VALID,26.4272,VALID,321,VALID,0,
2016-04-15, 11:34:04,VALID,919.171,VALID,0,VALID,66.4228,VALID,730.278,VALID,26.5054,VALID,321,VALID,0,
2016-04-15, 11:35:04,VALID,919.163,VALID,0,VALID,65.7748,VALID,816.553,VALID,26.566,VALID,321,VALID,0,
2016-04-15, 11:36:04,VALID,919.117,VALID,0,VALID,67.0632,VALID,553.752,VALID,26.8004,VALID,358,VALID,0,
2016-04-15, 11:37:04,VALID,919.142,VALID,0,VALID,65.8282,VALID,992.112,VALID,27.1325,VALID,358,VALID,0,
2016-04-15, 11:38:04,VALID,919.138,VALID,0,VALID,63.0533,VALID,466.939,VALID,27.2888,VALID,303,VALID,0,
2016-04-15, 11:39:04,VALID,919.083,VALID,0,VALID,63.808,VALID,468.121,VALID,27.3084,INVALID,360,VALID,0,
2016-04-15, 11:40:04,VALID,919.075,VALID,0,VALID,62.3062,VALID,436.963,VALID,27.3865,VALID,302,VALID,0,
2016-04-15, 11:41:04,VALID,919.094,VALID,0,VALID,64.3416,VALID,426.864,VALID,27.4451,VALID,256,VALID,0,
2016-04-15, 11:42:04,VALID,919.064,VALID,0,VALID,61.3456,VALID,484.13,VALID,27.2693,VALID,252,VALID,0,
2016-04-15, 11:43:04,VALID,919.058,VALID,0,VALID,62.3672,VALID,513.676,VALID,27.2302,VALID,252,VALID,0,
2016-04-15, 11:44:04,VALID,919.076,VALID,0,VALID,63.3277,VALID,901.968,VALID,27.3279,VALID,261,VALID,0,
2016-04-15, 11:45:04,VALID,919.073,VALID,0,VALID,61.1855,VALID,730.707,VALID,27.4235,VALID,258,VALID,0,
2016-04-15, 11:46:04,VALID,919.073,VALID,0,VALID,61.582,VALID,748.435,VALID,27.6189,VALID,258,VALID,0,
2016-04-15, 11:47:04,VALID,919.072,VALID,0,VALID,61.803,VALID,1127.06,VALID,27.7948,VALID,241,VALID,0,
2016-04-15, 11:48:04,VALID,919.038,VALID,0,VALID,58.1285,VALID,653.994,VALID,27.9337,VALID,241,VALID,0,
2016-04-15, 11:49:04,VALID,919.04,VALID,0,VALID,58.7842,VALID,543.437,VALID,28.09,VALID,241,VALID,0,
2016-04-15, 11:50:04,VALID,919,VALID,0,VALID,56.459,VALID,642.176,VALID,28.2833,VALID,241,VALID,0,
2016-04-15, 11:51:04,VALID,919.008,VALID,0,VALID,57.9227,VALID,800.866,VALID,28.4397,VALID,241,VALID,0,
2016-04-15, 11:52:04,VALID,918.987,VALID,0,VALID,57.1985,VALID,818.057,VALID,28.3029,VALID,241,VALID,0,